Regional Weather Roundup
Issued by NWS Tiyan, Guam

Current Version | Previous Version | Text Only | Print | Product List | Glossary On
Versions: 1 2 3 4 5 6 7 8 9 10 11 12 13 14 15 16 17 18 19 20 21 22 23 24 25 26 27 28
000
ASGM40 PGUM 200812
RWRGUM
WEATHER ROUNDUP FOR THE MARIANAS
NATIONAL WEATHER SERVICE TIYAN GU
600 PM CHST FRI OCT 20 2017

GUZ001>004-200900-
MARIANA ISLANDS-

CITY           SKY/WX    TMP DP  RH WIND       PRES   REMARKS
GUAM AIRPORT   CLEAR     82  79  89 N9        29.80R HX  93
ANDERSEN AFB   MOCLDY    82  77  83 N6        29.80F HX  91
ROTA AIRPORT   PTCLDY    81  75  83 N6        29.79S
TINIAN AP      PTCLDY    82  77  83 N3        29.77R HX  91
SAIPAN AP      PTCLDY    82  79  89 N5        29.78R HX  93

$$





USA.gov is the U.S. government's official web portal to all federal, state and local government web resources and services.